SL-16 DEB

Satellite information

Favourite Embed

Satellite Type and Status

DEBRISIN ORBIT

Key statistics

Satellite SL-16 DEB at a glance.

Uptime

11824

Days in orbit

Revolutions

≈ 14.0

Per day

Orbit

LEO

Low Earth Orbit

Inclination

71.2

Latest

Satellite identification and parameters

Extended collection of information and parameters for SL-16 DEB.

Object identification

Identified? True

Debris? True

Object name: SL-16 DEB

International designator: 1992-093DP

Object number (NORAD): 22422

Object ID (CCSDS): 22422

Country: COMMONWEALTH OF INDEPENDENT STATES (CIS)

Current information (Y/N): Y

RCS size: SMALL

Orbital parameters

Period: 102.836 minutes

Inclination: 71.1813 deg

SMA: 7270.913 km

Apoapsis: 960.668 km

Periapsis: 824.888 km

RAAN: 131.5243 deg

Eccentricy: 0.0093372

Argument of periapsis: 323.6576 deg

Mean anomaly: 62.0543 deg

Mean motion: 14.00294385 rev/day

Mean motion (dot): 0.0000048 rev/day2

B* drag term: 0.00034182 1/REarth

Two-line elements (TLE)

Creation date: May 9, 2025, 2:46 a.m.

Reference frame: TEME

Reference center: EARTH

Epoch: May 8, 2025, 11:24 p.m. UTC

TLE line 0: 0 SL-16 DEB

TLE line 1: 1 22422U 92093DP 25128.97519847 .00000480 00000-0 34182-3 0 9996

TLE line 2: 2 22422 71.1813 131.5243 0093372 323.6576 62.0543 14.00294385647801

Live tracking on map

Real-time ground track for satellite SL-16 DEB.

In-orbit conjunctions

A list of the most updated potential collisions computed for object SL-16 DEB.

Target Orbit TCA Probability of collision Miss distance Type
CZ-6A DEB SSO 2025-03-09 04:54:39 0.0001134529 153.0 (m) DEBRIS
THORAD AGENA D DEB SSO 2024-11-23 19:16:07 0.0001387553 161.0 (m) DEBRIS
CZ-4 DEB SSO 2024-11-13 08:29:12 0.0004547586 287.0 (m) DEBRIS

Associated space launch

Second generation ELING satellite

SL-16 DEB was lifted into orbit during the mission ‘Zenit-2 | Tselina-2 12’, on board a Zenit-2 space rocket.

The launch took place on Dec. 25, 1992, 5:56 a.m. from 45/1.

For more information about the launch, click the button.

Launch to space Zenit-2 | Tselina-2 12
Zenit-2 | Tselina-2 12

Agency: N/A

Status: Launch Successful

Launch date: Dec. 25, 1992, 5:56 a.m. UTC

Rocket: Zenit-2

Launch pad: 45/1

Location: Baikonur Cosmodrome, Republic of Kazakhstan

...

Latest news about this satellite

There are no fresh news available about this satellite. Check back as we update our databases every day.


Newsletter sign-up

Weekly statistics, charts and insights to help you stay on top of the space industry.